Tracking 30995 objects as of 5-Jul-2025
HD Live streaming from Space Station
objects crossing your sky now

STARLINK-11631

Track STARLINK-11631 now!
10-day predictions
STARLINK-11631 is classified as:


NORAD ID: 63195
Int'l Code: 2025-048N
Perigee: 362.3 km
Apogee: 364.9 km
Inclination: 43.0 °
Period: 91.7 minutes
Semi major axis: 6734 km
RCS: Unknown
Launch date: March 13, 2025
Source: United States (US)
Launch site: AIR FORCE EASTERN TEST RANGE (AFETR)
Your satellite tracking list
STARLINK-30340
Track 1 satellite(s)




NASA's NSSDC Master Catalog

Two Line Element Set (TLE):
1 63195U 25048N   25186.58335648 -.00047113  00000-0 -36548-3 0  9994
2 63195  43.0004   9.8407 0001889 257.0809  62.4036 15.70855688 19220
Source of the keplerian elements: AFSPC